Flag for United Kingdom Weather past 2 weeks in Colchester, England, United Kingdom

Now
75 °F

Passing clouds.


Feels Like: 78 °F
Forecast: 55 / 74 °F
Wind: 10 mph from Northwest

Location: Cranfield

Current Time: Jul 29, 2014 at 8:28:20 PM

Latest Report: Jul 29, 2014 at 5:50 PM


Visibility: N/A

Pressure: 29.95 "Hg

Humidity: 54%

Dew point: 57 °F

Location of ColchesterLocation

Historic Weather in Colchester — Graph

°F

Colchester temperature yesterday

Maximum temperature yesterday: 72 °F (at 1:50 PM)
Minimum temperature yesterday: 59 °F (at 7:50 AM)
Average temperature yesterday: 67 °F

Past Weeks' High & Low Weather Summary

 TemperatureHumidityPressure
High84 °F (Jul 18, 2:50 PM)100% (Jul 18, 7:50 AM)30.24 "Hg (Jul 18, 7:50 AM)
Low55 °F (Jul 22, 7:50 AM)37% (Jul 26, 3:50 PM)29.74 "Hg (Jul 19, 3:50 PM)
Average73 °F68%30.03 "Hg
* Reported Jul 14 5:50 PM — Jul 29 5:50 PM, Colchester, Weather by CustomWeather, © 2014

Note: Actual official high and low records may vary slightly from our data, if they occured in-between our weather recording intervals... More about our weather records

Advertising

Colchester weather history for previous 24 hours

 ConditionsComfort  
Time TempWeatherWind HumidityBarometerVisibility
5:50 PM
Jul 29
75 °FPassing clouds.10 mph54%29.95 "HgN/A
5:20 PM77 °FPassing clouds.8 mph44%29.95 "HgN/A
4:50 PM77 °FPassing clouds.8 mph44%29.95 "HgN/A
4:20 PM79 °FPassing clouds.8 mph39%29.98 "HgN/A
3:50 PM79 °FPassing clouds.8 mph42%29.98 "HgN/A
3:20 PM79 °FPassing clouds.8 mph37%29.98 "HgN/A
2:50 PM79 °FPassing clouds.8 mph42%29.98 "HgN/A
2:20 PM77 °FScattered clouds.8 mph47%29.98 "HgN/A
1:50 PM75 °FScattered clouds.7 mph50%30.01 "HgN/A
1:20 PM75 °FScattered clouds.10 mph50%30.01 "HgN/A
12:50 PM73 °FScattered clouds.8 mph53%30.01 "HgN/A
12:20 PM73 °FPassing clouds.6 mph57%30.01 "HgN/A
11:50 AM72 °FPassing clouds.7 mph65%30.01 "HgN/A
11:20 AM72 °FPassing clouds.7 mph65%30.01 "HgN/A
10:50 AM70 °FPassing clouds.8 mph64%30.01 "HgN/A
10:20 AM68 °FPassing clouds.8 mph73%30.04 "HgN/A
9:50 AM64 °FPassing clouds.8 mph83%30.04 "HgN/A
9:20 AM64 °FSunny.7 mph78%30.04 "Hg10 mi
8:50 AM66 °FPassing clouds.5 mph73%30.04 "HgN/A
8:20 AM64 °FPassing clouds.5 mph83%30.04 "HgN/A
Weather by CustomWeather, © 2014

See weather overviewHow to use our weather pages